Location: Unspecified
(48.8656°N, 0.0000°E)
Time: 20:50:31
(UTC+00:00)

Vanguard 3 - Pass Details

Date: 27 June 2019
Orbit: 507 x 3264 km, 33.4° (Epoch: 15 July)

Event Time Altitude Azimuth Distance (km) Brightness Sun altitude
Rises 07:57:17 0° 206° (SSW) 7,196 11.8 36.0°
Reaches altitude 10° 08:04:03 10° 194° (SSW) 6,006 11.6 37.1°
Maximum altitude 08:15:51 22° 153° (SSE) 4,435 11.6 39.0°
Drops below altitude 10° 08:24:58 10° 110° (ESE) 4,564 12.1 40.5°
Sets 08:29:04 0° 96° (E) 5,130 12.1 41.1°
